Location: ??
(35.4032°N, 139.3073°E)
Time: 11:27:18
(UTC+00:00)

Cosmos 2297 Rocket - Pass Details

Date: 13 April 2024
Orbit: 840 x 841 km, 71.0° (Epoch: 21 May)

Event Time Altitude Azimuth Distance (km) Brightness Sun altitude
Rises 13:21:20 0° 335° (NNW) 3,399 6.2 -41.2°
Reaches altitude 10° 13:23:47 10° 334° (NNW) 2,461 5.3 -41.5°
Enters shadow 13:25:27 20° 331° (NNW) 1,850 4.4 -41.6°
